| time (UTC) | temp C | wind direction | speed KPH | gust KPH | rain 1hr cm | rain 24hr cm | rain mn cm | humidity % | barometer mb |
| 20260504100305 | 22 | 98 | 1.6 | 0.0 | 0.00 | 0.00 | 0.00 | 86 | 1009.0 |
| 20260504100205 | 22 | 98 | 1.6 | 0.0 | 0.00 | 0.00 | 0.00 | 86 | 1009.0 |
| 20260504080301 | 22 | 109 | 1.6 | 1.6 | 0.00 | 0.00 | 0.00 | 83 | 1010.0 |
| 20260504080201 | 22 | 109 | 1.6 | 1.6 | 0.00 | 0.00 | 0.00 | 83 | 1010.0 |
| 20260504070300 | 23 | 109 | 1.6 | 1.6 | 0.00 | 0.00 | 0.00 | 83 | 1010.0 |
| 20260504070159 | 23 | 109 | 1.6 | 1.6 | 0.00 | 0.00 | 0.00 | 83 | 1010.0 |
| 20260504060158 | 25 | 109 | 1.6 | 1.6 | 0.00 | 0.00 | 0.00 | 83 | 1011.0 |
| 20260504050257 | 22 | 95 | 8.0 | 11.3 | 0.00 | 0.00 | 0.00 | 75 | 1011.0 |
| 20260504050156 | 22 | 95 | 8.0 | 11.3 | 0.00 | 0.00 | 0.00 | 75 | 1011.0 |
| 20260504044256 | 23 | 95 | 8.0 | 11.3 | 0.00 | 0.00 | 0.00 | 75 | 1011.0 |
| 20260504044156 | 23 | 95 | 8.0 | 11.3 | 0.00 | 0.00 | 0.00 | 75 | 1011.0 |
| 20260504042256 | 23 | 95 | 8.0 | 11.3 | 0.00 | 0.00 | 0.00 | 75 | 1011.0 |
| 20260504042156 | 23 | 95 | 8.0 | 11.3 | 0.00 | 0.00 | 0.00 | 75 | 1011.0 |
| 20260504040255 | 24 | 95 | 8.0 | 11.3 | 0.00 | 0.00 | 0.00 | 75 | 1011.0 |
| 20260504040155 | 24 | 95 | 8.0 | 11.3 | 0.00 | 0.00 | 0.00 | 75 | 1011.0 |
| 20260504034254 | 25 | 95 | 8.0 | 11.3 | 0.00 | 0.00 | 0.00 | 75 | 1011.0 |
| 20260504034154 | 25 | 95 | 8.0 | 11.3 | 0.00 | 0.00 | 0.00 | 75 | 1011.0 |
| 20260504032254 | 25 | 95 | 8.0 | 11.3 | 0.00 | 0.00 | 0.00 | 75 | 1011.0 |
| 20260504032154 | 25 | 95 | 8.0 | 11.3 | 0.00 | 0.00 | 0.00 | 75 | 1011.0 |
| 20260504030254 | 26 | 95 | 8.0 | 11.3 | 0.00 | 0.00 | 0.00 | 75 | 1011.0 |
| 20260504030153 | 26 | 95 | 8.0 | 11.3 | 0.00 | 0.00 | 0.00 | 75 | 1011.0 |
| 20260504024253 | 26 | 95 | 8.0 | 11.3 | 0.00 | 0.00 | 0.00 | 75 | 1011.0 |
| 20260504024153 | 26 | 95 | 8.0 | 11.3 | 0.00 | 0.00 | 0.00 | 75 | 1011.0 |
| 20260504022253 | 27 | 95 | 8.0 | 11.3 | 0.00 | 0.00 | 0.00 | 75 | 1011.0 |
| 20260504022152 | 27 | 95 | 8.0 | 11.3 | 0.00 | 0.00 | 0.00 | 75 | 1011.0 |
| 20260504020252 | 27 | 95 | 8.0 | 11.3 | 0.00 | 0.00 | 0.00 | 75 | 1011.0 |
| 20260504020152 | 27 | 95 | 8.0 | 11.3 | 0.00 | 0.00 | 0.00 | 75 | 1011.0 |
| 20260504014252 | 28 | 95 | 8.0 | 11.3 | 0.00 | 0.00 | 0.00 | 75 | 1011.0 |
| 20260504014151 | 28 | 95 | 8.0 | 11.3 | 0.00 | 0.00 | 0.00 | 75 | 1011.0 |
| 20260504012251 | 22 | 79 | 8.0 | 8.0 | 0.05 | 0.00 | 0.00 | 74 | 1010.0 |
| 20260504012151 | 22 | 79 | 8.0 | 8.0 | 0.05 | 0.00 | 0.00 | 74 | 1010.0 |
| 20260504010251 | 23 | 79 | 8.0 | 8.0 | 0.00 | 0.00 | 0.00 | 74 | 1010.0 |
| 20260504010150 | 23 | 79 | 8.0 | 8.0 | 0.00 | 0.00 | 0.00 | 74 | 1010.0 |
| 20260504004250 | 23 | 79 | 8.0 | 8.0 | 0.05 | 0.00 | 0.00 | 74 | 1010.0 |
| 20260504004150 | 23 | 79 | 8.0 | 8.0 | 0.05 | 0.00 | 0.00 | 74 | 1010.0 |
| 20260504002250 | 24 | 79 | 8.0 | 8.0 | 0.00 | 0.00 | 0.00 | 74 | 1009.0 |
| 20260504002149 | 24 | 79 | 8.0 | 8.0 | 0.00 | 0.00 | 0.00 | 74 | 1009.0 |
| 20260504000248 | 25 | 79 | 8.0 | 8.0 | 0.08 | 0.00 | 0.00 | 74 | 1009.0 |
| 20260504000148 | 25 | 79 | 8.0 | 8.0 | 0.08 | 0.00 | 0.00 | 74 | 1009.0 |
| 20260503234248 | 25 | 79 | 8.0 | 8.0 | 0.00 | 0.00 | 0.00 | 74 | 1009.0 |
| 20260503234148 | 25 | 79 | 8.0 | 8.0 | 0.00 | 0.00 | 0.00 | 74 | 1009.0 |
| 20260503232247 | 26 | 79 | 8.0 | 8.0 | 0.05 | 0.00 | 0.00 | 74 | 1008.0 |
| 20260503232147 | 26 | 79 | 8.0 | 8.0 | 0.05 | 0.00 | 0.00 | 74 | 1008.0 |
| 20260503230247 | 26 | 79 | 8.0 | 8.0 | 0.00 | 0.00 | 0.00 | 74 | 1008.0 |
| 20260503230147 | 26 | 79 | 8.0 | 8.0 | 0.00 | 0.00 | 0.00 | 74 | 1008.0 |
| 20260503224246 | 27 | 79 | 8.0 | 8.0 | 0.05 | 0.00 | 0.00 | 74 | 1008.0 |
| 20260503224146 | 27 | 79 | 8.0 | 8.0 | 0.05 | 0.00 | 0.00 | 74 | 1008.0 |
| 20260503222246 | 26 | 75 | 8.0 | 6.4 | 0.00 | 0.00 | 0.00 | 69 | 1008.0 |
| 20260503222146 | 26 | 75 | 8.0 | 6.4 | 0.00 | 0.00 | 0.00 | 69 | 1008.0 |
| 20260503220245 | 26 | 75 | 8.0 | 6.4 | 0.08 | 0.00 | 0.00 | 69 | 1008.0 |
| 20260503220145 | 26 | 75 | 8.0 | 6.4 | 0.08 | 0.00 | 0.00 | 69 | 1008.0 |
| 20260503214245 | 27 | 75 | 8.0 | 6.4 | 0.00 | 0.00 | 0.00 | 69 | 1008.0 |
| 20260503214144 | 27 | 75 | 8.0 | 6.4 | 0.00 | 0.00 | 0.00 | 69 | 1008.0 |
| 20260503212244 | 27 | 75 | 8.0 | 6.4 | 0.05 | 0.00 | 0.00 | 69 | 1008.0 |
| 20260503212144 | 27 | 75 | 8.0 | 6.4 | 0.05 | 0.00 | 0.00 | 69 | 1008.0 |
| 20260503210243 | 28 | 75 | 8.0 | 6.4 | 0.00 | 0.00 | 0.00 | 69 | 1008.0 |
| 20260503210143 | 28 | 75 | 8.0 | 6.4 | 0.00 | 0.00 | 0.00 | 69 | 1008.0 |
| 20260503204243 | 28 | 75 | 8.0 | 6.4 | 0.05 | 0.00 | 0.00 | 69 | 1008.0 |
| 20260503204143 | 28 | 75 | 8.0 | 6.4 | 0.05 | 0.00 | 0.00 | 69 | 1008.0 |
| 20260503202242 | 29 | 75 | 8.0 | 6.4 | 0.00 | 0.00 | 0.00 | 69 | 1009.0 |
| 20260503202142 | 29 | 75 | 8.0 | 6.4 | 0.00 | 0.00 | 0.00 | 69 | 1009.0 |
| 20260503200242 | 30 | 75 | 9.7 | 6.4 | 0.03 | 0.00 | 0.00 | 69 | 1009.0 |
| 20260503200141 | 30 | 75 | 9.7 | 6.4 | 0.03 | 0.00 | 0.00 | 69 | 1009.0 |
| 20260503194241 | 27 | 103 | 11.3 | 8.0 | 0.03 | 0.00 | 0.00 | 73 | 1009.0 |
| 20260503194141 | 27 | 103 | 11.3 | 8.0 | 0.03 | 0.00 | 0.00 | 73 | 1009.0 |
| 20260503192241 | 27 | 103 | 11.3 | 8.0 | 0.00 | 0.00 | 0.00 | 73 | 1010.0 |
| 20260503192140 | 27 | 103 | 11.3 | 8.0 | 0.00 | 0.00 | 0.00 | 73 | 1010.0 |
| 20260503190240 | 28 | 103 | 11.3 | 8.0 | 0.00 | 0.00 | 0.00 | 73 | 1010.0 |
| 20260503190140 | 28 | 103 | 11.3 | 8.0 | 0.00 | 0.00 | 0.00 | 73 | 1010.0 |
| 20260503184240 | 28 | 103 | 11.3 | 8.0 | 0.00 | 0.00 | 0.00 | 73 | 1010.0 |
| 20260503184139 | 28 | 103 | 11.3 | 8.0 | 0.00 | 0.00 | 0.00 | 73 | 1010.0 |
| 20260503182239 | 25 | 90 | 8.0 | 8.0 | 0.00 | 0.00 | 0.00 | 78 | 1011.0 |
| 20260503182139 | 25 | 90 | 8.0 | 8.0 | 0.00 | 0.00 | 0.00 | 78 | 1011.0 |
| 20260503180238 | 25 | 90 | 8.0 | 8.0 | 0.00 | 0.00 | 0.00 | 78 | 1011.0 |
| 20260503180138 | 25 | 90 | 8.0 | 8.0 | 0.00 | 0.00 | 0.00 | 78 | 1011.0 |
| 20260503174238 | 25 | 90 | 8.0 | 8.0 | 0.00 | 0.00 | 0.00 | 78 | 1011.0 |
| 20260503174138 | 25 | 90 | 8.0 | 8.0 | 0.00 | 0.00 | 0.00 | 78 | 1011.0 |
| 20260503172237 | 23 | 92 | 8.0 | 11.3 | 0.00 | 0.00 | 0.00 | 78 | 1012.0 |
| 20260503172137 | 23 | 92 | 8.0 | 11.3 | 0.00 | 0.00 | 0.00 | 78 | 1012.0 |
| 20260503170237 | 24 | 92 | 8.0 | 11.3 | 0.00 | 0.00 | 0.00 | 78 | 1012.0 |
| 20260503170137 | 24 | 92 | 8.0 | 11.3 | 0.00 | 0.00 | 0.00 | 78 | 1012.0 |
| 20260503160134 | 25 | 102 | 8.0 | 11.3 | 0.00 | 0.00 | 0.00 | 77 | 1012.0 |
| 20260503150233 | 25 | 84 | 6.4 | 8.0 | 0.00 | 0.00 | 0.00 | 78 | 1012.0 |
| 20260503150133 | 25 | 84 | 6.4 | 8.0 | 0.00 | 0.00 | 0.00 | 78 | 1012.0 |
| 20260503140231 | 26 | 84 | 6.4 | 9.7 | 0.00 | 0.00 | 0.00 | 78 | 1011.0 |
| 20260503140131 | 26 | 84 | 6.4 | 9.7 | 0.00 | 0.00 | 0.00 | 78 | 1011.0 |
| 20260503130230 | 24 | 80 | 1.6 | 1.6 | 0.00 | 0.00 | 0.00 | 83 | 1011.0 |
| 20260503130129 | 24 | 80 | 1.6 | 1.6 | 0.00 | 0.00 | 0.00 | 83 | 1011.0 |
| 20260503120128 | 22 | 77 | 6.4 | 11.3 | 0.00 | 0.00 | 0.00 | 89 | 1011.0 |
| 20260503110227 | 21 | 60 | 4.8 | 8.0 | 0.00 | 0.00 | 0.00 | 90 | 1011.0 |
| 20260503110126 | 21 | 60 | 4.8 | 8.0 | 0.00 | 0.00 | 0.00 | 90 | 1011.0 |